Tracking 19827 objects as of 23-Aug-2019
HD Live streaming from Space Station
objects crossing your sky now

RADUGA 7

Track RADUGA 7 now!
RADUGA 7 is classified as:


NORAD ID: 12003
Int'l Code: 1980-081A
Perigee: 35,770.9 km
Apogee: 35,856.8 km
Inclination: 11.6 °
Period: 1,437.1 minutes
Semi major axis: 42184 km
RCS: 7.9432 m2 (large)
Launch date: October 5, 1980
Source: Commonwealth of Independent States (former USSR) (CIS)
Launch site: TYURATAM MISSILE AND SPACE COMPLEX (TTMTR)
aabbcc
Your satellite tracking list
Your tracking list is empty




NASA's NSSDC Master Catalog

Two Line Element Set (TLE):
1 12003U 80081A   19233.13067878 -.00000291 +00000-0 +00000-0 0  9994
2 12003 011.6118 316.1951 0010173 254.1659 111.2675 01.00200117098323
Source of the keplerian elements: AFSPC